Frederick, MD

5:48 AM EST on February 24, 2018 (GMT -0500)
Frederick Municipal

Weather History for KFDK - March, 2013

Change the Weather History Date:

Wednesday, March 6, 2013

  Actual Average (KHGR) Record (KHGR)
Temperature  
Mean Temperature 34 °F -  
Max Temperature 37 °F 44 °F 73 °F (2009)
Min Temperature 32 °F 27 °F 2 °F (2015)
Degree Days  
Heating Degree Days 30    
Moisture  
Dew Point 33 °F    
Average Humidity 96    
Maximum Humidity 100    
Minimum Humidity 75    
Precipitation  
Precipitation 0.19 in - - ()
Sea Level Pressure  
Sea Level Pressure 29.85 in    
Wind  
Wind Speed 9 mph (NNE)    
Max Wind Speed 26 mph    
Max Gust Speed 34 mph    
Visibility 5 miles    
Events Rain , Snow    
Averages and records for this station are not official NWS values.
T = Trace of Precipitation, MM = Missing Value Source: NWS Daily Summary

Daily Weather History Graph

Daily Weather History Graph

Search for Another Location

Airport or City:

Trip Planner

Search our weather history database for the weather conditions in past years. The results will help you decide how hot, cold, wet, or windy it might be!

Date:

Astronomy

Mar. 06, 2013 Rise Set
Actual Time 6:34 AM EST 6:07 PM EST
Civil Twilight 6:07 AM EST 6:34 PM EST
Nautical Twilight 5:36 AM EST 7:05 PM EST
Astronomical Twilight 5:05 AM EST 7:36 PM EST
Moon 2:40 AM EST (3/6) 12:48 PM EST (3/6)
Length of Visible Light 12h 26m
Length of Day
11h 32m
Waning Crescent, 30% of the Moon is Illuminated
Mar 6
Waning Crescent
Mar 11
New
Mar 19
First Quarter
Mar 27
Full
Apr 3
Last Quarter

Hourly Weather History & Observations

Time (EST) Temp. Windchill Dew Point Humidity Pressure Visibility Wind Dir Wind Speed Gust Speed Precip Events Conditions
12:00 AM 37.4 °F 32.8 °F 30.2 °F 75% 29.85 in 10.0 mi East 5.8 mph - N/A   Overcast
12:20 AM 37.4 °F 30.3 °F 32.0 °F 81% 29.84 in 10.0 mi ENE 10.4 mph 18.4 mph N/A Rain Light Rain
12:40 AM 35.6 °F 28.6 °F 32.0 °F 87% 29.82 in 7.0 mi ENE 9.2 mph - N/A Rain Light Rain
1:00 AM 33.8 °F 27.0 °F 32.0 °F 93% 29.82 in 5.0 mi ENE 8.1 mph - N/A Rain Light Rain
1:20 AM 32.0 °F 25.6 °F 32.0 °F 100% 29.81 in 3.0 mi ENE 6.9 mph - 0.02 in   Overcast
1:40 AM 32.0 °F 25.6 °F 32.0 °F 100% 29.79 in 2.0 mi NE 6.9 mph - 0.03 in Snow Light Snow
2:00 AM 32.0 °F 24.8 °F 32.0 °F 100% 29.77 in 1.2 mi NE 8.1 mph - N/A Snow Light Snow
2:20 AM 32.0 °F 24.2 °F 32.0 °F 100% 29.76 in 1.5 mi NE 9.2 mph - 0.02 in Snow Light Snow
2:40 AM 32.0 °F 25.6 °F 32.0 °F 100% 29.76 in 1.8 mi NE 6.9 mph - 0.03 in Snow Light Snow
3:00 AM 32.0 °F 26.4 °F 32.0 °F 100% 29.75 in 1.5 mi NE 5.8 mph - N/A Snow Light Snow
3:20 AM 32.0 °F 26.4 °F 32.0 °F 100% 29.75 in 1.5 mi NNE 5.8 mph - 0.02 in Snow Light Snow
3:40 AM 32.0 °F 25.6 °F 32.0 °F 100% 29.74 in 1.8 mi NNE 6.9 mph - 0.04 in Snow Light Snow
4:00 AM 32.0 °F 24.2 °F 32.0 °F 100% 29.73 in 1.2 mi North 9.2 mph - N/A Snow Light Snow
4:20 AM 32.0 °F 23.6 °F 32.0 °F 100% 29.72 in 1.2 mi North 10.4 mph - 0.02 in Snow Light Snow
4:40 AM 32.0 °F 22.5 °F 32.0 °F 100% 29.71 in 1.8 mi NNE 12.7 mph - 0.04 in Snow Light Snow
5:00 AM 32.0 °F 23.0 °F 32.0 °F 100% 29.71 in 1.8 mi NNE 11.5 mph - N/A Snow Light Snow
5:20 AM 32.0 °F 23.0 °F 32.0 °F 100% 29.72 in 3.0 mi NNE 11.5 mph - 0.02 in Snow Light Snow
5:40 AM 32.0 °F 23.0 °F 32.0 °F 100% 29.72 in 1.8 mi NNE 11.5 mph - 0.04 in Snow Light Snow
5:45 AM 32.0 °F 23.0 °F 32.0 °F 100% 29.72 in 1.5 mi NNE 11.5 mph - 0.05 in Snow Light Snow
7:45 AM 32.0 °F 23.0 °F 32.0 °F 100% 29.71 in 0.5 mi NNE 11.5 mph - N/A Snow Snow
7:59 AM 33.8 °F 24.3 °F 33.8 °F 100% 29.72 in 1.0 mi NNE 13.8 mph 20.7 mph N/A Snow Snow
8:50 AM 33.8 °F 23.9 °F 33.8 °F 100% 29.73 in 0.8 mi NNE 15.0 mph 23.0 mph N/A Snow Snow
9:50 AM 33.8 °F 22.8 °F 33.8 °F 100% 29.73 in 1.0 mi NNE 18.4 mph 25.3 mph N/A Snow Snow
10:50 AM 33.8 °F 22.8 °F 33.8 °F 100% 29.74 in 1.0 mi NNE 18.4 mph 25.3 mph N/A Snow Snow
11:59 AM 35.6 °F 24.0 °F 35.6 °F 100% 29.77 in 2.0 mi NNE 23.0 mph 27.6 mph N/A Snow Snow
12:52 PM 35.6 °F 23.2 °F 35.6 °F 100% 29.78 in 3.0 mi NNE 26.5 mph 34.5 mph N/A Snow Snow
1:45 PM 35.6 °F 23.4 °F 35.6 °F 100% 29.79 in 5.0 mi NNE 25.3 mph 34.5 mph N/A Rain Rain
2:45 PM 35.6 °F 24.2 °F 35.6 °F 100% 29.84 in 5.0 mi NNE 21.9 mph 34.5 mph N/A Rain Rain
3:55 PM 37.4 °F 28.5 °F 37.4 °F 100% 29.88 in 7.0 mi North 15.0 mph 24.2 mph N/A   Overcast
4:57 PM 37.4 °F 28.9 °F 37.4 °F 100% 29.93 in 10.0 mi North 13.8 mph 20.7 mph N/A Rain Light Rain
5:45 PM 37.4 °F 32.1 °F 37.4 °F 100% 29.95 in 10.0 mi NNE 6.9 mph - N/A Rain Light Rain
6:50 PM 37.4 °F 32.1 °F 37.4 °F 100% 29.99 in 10.0 mi NE 6.9 mph - N/A   Overcast
7:52 PM 37.4 °F 33.8 °F 37.4 °F 100% 30.01 in 10.0 mi NNE 4.6 mph - N/A   Overcast
8:05 PM 35.6 °F 31.7 °F 35.6 °F 100% 30.01 in 10.0 mi North 4.6 mph - N/A   Overcast
8:25 PM 35.6 °F - 35.6 °F 100% 30.01 in 10.0 mi Calm Calm - N/A   Overcast
8:45 PM 35.6 °F - 35.6 °F 100% 30.01 in 10.0 mi Calm Calm - N/A   Overcast
9:05 PM 35.6 °F 32.8 °F 35.6 °F 100% 30.01 in 10.0 mi North 3.5 mph - N/A   Overcast
9:25 PM 37.4 °F 30.3 °F 32.0 °F 81% 30.01 in 10.0 mi North 10.4 mph - N/A   Mostly Cloudy
9:45 PM 37.4 °F 30.3 °F 32.0 °F 81% 30.01 in 10.0 mi North 10.4 mph - N/A   Scattered Clouds
10:05 PM 37.4 °F 31.4 °F 32.0 °F 81% 30.01 in 10.0 mi NNW 8.1 mph - N/A   Clear
10:25 PM 37.4 °F 31.4 °F 32.0 °F 81% 30.02 in 10.0 mi NNW 8.1 mph - N/A   Clear
10:45 PM 35.6 °F 29.9 °F 32.0 °F 87% 30.02 in 10.0 mi NNW 6.9 mph - N/A   Clear
11:05 PM 35.6 °F 31.7 °F 32.0 °F 87% 30.03 in 10.0 mi NNW 4.6 mph - N/A   Clear
11:25 PM 35.6 °F 29.9 °F 32.0 °F 87% 30.04 in 10.0 mi NNW 6.9 mph - N/A   Clear
11:45 PM 35.6 °F 30.7 °F 32.0 °F 87% 30.04 in 10.0 mi North 5.8 mph - N/A   Clear